Year,Month,Day,Hour,Minute,Value (Times are PST for windspeed in km/hr)
2014,12,08,00,00,0.00
2014,12,08,00,01,0.00
2014,12,08,00,02,0.00
2014,12,08,00,03,0.00
2014,12,08,00,04,0.00
2014,12,08,00,05,0.00
2014,12,08,00,06,0.00
2014,12,08,00,07,0.40
2014,12,08,00,08,4.30
2014,12,08,00,09,4.50
2014,12,08,00,10,2.70
2014,12,08,00,11,0.00
2014,12,08,00,12,0.00
2014,12,08,00,13,0.00
2014,12,08,00,14,0.00
2014,12,08,00,15,0.00
2014,12,08,00,16,0.00
2014,12,08,00,17,0.00
2014,12,08,00,18,0.00
2014,12,08,00,19,0.00
2014,12,08,00,20,0.00
2014,12,08,00,21,0.00
2014,12,08,00,22,0.00
2014,12,08,00,23,0.00
2014,12,08,00,24,0.00
2014,12,08,00,25,0.00
2014,12,08,00,26,0.00
2014,12,08,00,27,2.10
2014,12,08,00,28,2.10
2014,12,08,00,29,1.60
2014,12,08,00,30,0.60
2014,12,08,00,31,0.00
2014,12,08,00,32,0.00
2014,12,08,00,33,0.00
2014,12,08,00,34,0.00
2014,12,08,00,35,0.00
2014,12,08,00,36,0.00
2014,12,08,00,37,0.00
2014,12,08,00,38,0.00
2014,12,08,00,39,0.00
2014,12,08,00,40,0.00
2014,12,08,00,41,0.00
2014,12,08,00,42,0.00
2014,12,08,00,43,0.00
2014,12,08,00,44,0.00
2014,12,08,00,45,0.00
2014,12,08,00,46,0.00
2014,12,08,00,47,0.00
2014,12,08,00,48,0.00
2014,12,08,00,49,0.00
2014,12,08,00,50,0.00
2014,12,08,00,51,0.00
2014,12,08,00,52,0.00
2014,12,08,00,53,0.00
2014,12,08,00,54,0.00
2014,12,08,00,55,0.00
2014,12,08,00,56,0.00
2014,12,08,00,57,0.00
2014,12,08,00,58,0.00
2014,12,08,00,59,0.00
2014,12,08,01,00,0.00
2014,12,08,01,01,0.00
2014,12,08,01,02,0.00
2014,12,08,01,03,0.00
2014,12,08,01,04,0.00
2014,12,08,01,05,0.00
2014,12,08,01,06,0.00
2014,12,08,01,07,0.00
2014,12,08,01,08,0.00
2014,12,08,01,09,0.00
2014,12,08,01,10,0.00
2014,12,08,01,11,0.00
2014,12,08,01,12,0.00
2014,12,08,01,13,0.00
2014,12,08,01,14,0.00
2014,12,08,01,15,0.00
2014,12,08,01,16,0.00
2014,12,08,01,17,0.00
2014,12,08,01,18,0.00
2014,12,08,01,19,0.00
2014,12,08,01,20,0.00
2014,12,08,01,21,0.00
2014,12,08,01,22,1.30
2014,12,08,01,23,3.20
2014,12,08,01,24,1.80
2014,12,08,01,25,0.00
2014,12,08,01,26,0.00
2014,12,08,01,27,0.00
2014,12,08,01,28,0.00
2014,12,08,01,29,0.00
2014,12,08,01,30,0.00
2014,12,08,01,31,0.00
2014,12,08,01,32,0.00
2014,12,08,01,33,0.20
2014,12,08,01,34,1.00
2014,12,08,01,35,0.00
2014,12,08,01,36,0.00
2014,12,08,01,37,0.00
2014,12,08,01,38,1.80
2014,12,08,01,39,5.80
2014,12,08,01,40,5.50
2014,12,08,01,41,5.00
2014,12,08,01,42,4.00
2014,12,08,01,43,0.30
2014,12,08,01,44,0.00
2014,12,08,01,45,0.00
2014,12,08,01,46,0.00
2014,12,08,01,47,0.00
2014,12,08,01,48,0.00
2014,12,08,01,49,0.00
2014,12,08,01,50,0.00
2014,12,08,01,51,0.00
2014,12,08,01,52,0.00
2014,12,08,01,53,3.60
2014,12,08,01,54,3.00
2014,12,08,01,55,0.80
2014,12,08,01,56,0.00
2014,12,08,01,57,0.00
2014,12,08,01,58,0.00
2014,12,08,01,59,0.10
2014,12,08,02,00,0.00
2014,12,08,02,01,0.00
2014,12,08,02,02,0.00
2014,12,08,02,03,0.00
2014,12,08,02,04,0.00
2014,12,08,02,05,2.20
2014,12,08,02,06,3.10
2014,12,08,02,07,0.00
2014,12,08,02,08,0.00
2014,12,08,02,09,0.00
2014,12,08,02,10,0.00
2014,12,08,02,11,0.00
2014,12,08,02,12,0.00
2014,12,08,02,13,0.00
2014,12,08,02,14,0.00
2014,12,08,02,15,0.00
2014,12,08,02,16,1.10
2014,12,08,02,17,3.60
2014,12,08,02,18,2.60
2014,12,08,02,19,0.30
2014,12,08,02,20,1.20
2014,12,08,02,21,0.00
2014,12,08,02,22,1.10
2014,12,08,02,23,0.80
2014,12,08,02,24,1.50
2014,12,08,02,25,0.90
2014,12,08,02,26,0.10
2014,12,08,02,27,0.00
2014,12,08,02,28,0.00
2014,12,08,02,29,0.00
2014,12,08,02,30,0.00
2014,12,08,02,31,0.00
2014,12,08,02,32,0.00
2014,12,08,02,33,0.00
2014,12,08,02,34,0.00
2014,12,08,02,35,0.00
2014,12,08,02,36,0.00
2014,12,08,02,37,0.00
2014,12,08,02,38,0.00
2014,12,08,02,39,0.00
2014,12,08,02,40,0.00
2014,12,08,02,41,0.00
2014,12,08,02,42,0.00
2014,12,08,02,43,0.00
2014,12,08,02,44,0.00
2014,12,08,02,45,0.00
2014,12,08,02,46,0.00
2014,12,08,02,47,0.00
2014,12,08,02,48,0.00
2014,12,08,02,49,0.00
2014,12,08,02,50,0.00
2014,12,08,02,51,0.00
2014,12,08,02,52,0.00
2014,12,08,02,53,0.00
2014,12,08,02,54,0.00
2014,12,08,02,55,0.50
2014,12,08,02,56,0.70
2014,12,08,02,57,0.00
2014,12,08,02,58,0.00
2014,12,08,02,59,0.00
2014,12,08,03,00,0.00
2014,12,08,03,01,0.00
2014,12,08,03,02,0.00
2014,12,08,03,03,0.00
2014,12,08,03,04,0.00
2014,12,08,03,05,0.00
2014,12,08,03,06,0.00
2014,12,08,03,07,0.00
2014,12,08,03,08,0.00
2014,12,08,03,09,0.00
2014,12,08,03,10,0.30
2014,12,08,03,11,1.90
2014,12,08,03,12,0.80
2014,12,08,03,13,0.00
2014,12,08,03,14,0.00
2014,12,08,03,15,0.00
2014,12,08,03,16,0.00
2014,12,08,03,17,0.10
2014,12,08,03,18,0.00
2014,12,08,03,19,0.00
2014,12,08,03,20,0.00
2014,12,08,03,21,0.00
2014,12,08,03,22,0.00
2014,12,08,03,23,0.00
2014,12,08,03,24,0.00
2014,12,08,03,25,0.00
2014,12,08,03,26,0.00
2014,12,08,03,27,0.00
2014,12,08,03,28,0.00
2014,12,08,03,29,0.00
2014,12,08,03,30,0.00
2014,12,08,03,31,0.00
2014,12,08,03,32,0.10
2014,12,08,03,33,0.00
2014,12,08,03,34,0.00
2014,12,08,03,35,0.00
2014,12,08,03,36,0.00
2014,12,08,03,37,0.00
2014,12,08,03,38,0.00
2014,12,08,03,39,1.40
2014,12,08,03,40,0.40
2014,12,08,03,41,0.00
2014,12,08,03,42,0.00
2014,12,08,03,43,0.00
2014,12,08,03,44,0.00
2014,12,08,03,45,0.00
2014,12,08,03,46,0.50
2014,12,08,03,47,2.30
2014,12,08,03,48,0.00
2014,12,08,03,49,0.00
2014,12,08,03,50,0.00
2014,12,08,03,51,0.00
2014,12,08,03,52,0.00
2014,12,08,03,53,0.00
2014,12,08,03,54,0.00
2014,12,08,03,55,0.00
2014,12,08,03,56,0.00
2014,12,08,03,57,0.00
2014,12,08,03,58,0.00
2014,12,08,03,59,0.00
2014,12,08,04,00,0.00
2014,12,08,04,01,0.00
2014,12,08,04,02,0.00
2014,12,08,04,03,0.00
2014,12,08,04,04,0.00
2014,12,08,04,05,0.00
2014,12,08,04,06,0.00
2014,12,08,04,07,0.00
2014,12,08,04,08,0.00
2014,12,08,04,09,0.00
2014,12,08,04,10,0.00
2014,12,08,04,11,0.00
2014,12,08,04,12,0.00
2014,12,08,04,13,0.00
2014,12,08,04,14,0.00
2014,12,08,04,15,0.00
2014,12,08,04,16,0.00
2014,12,08,04,17,0.00
2014,12,08,04,18,0.00
2014,12,08,04,19,0.10
2014,12,08,04,20,1.40
2014,12,08,04,21,1.70
2014,12,08,04,22,2.20
2014,12,08,04,23,0.00
2014,12,08,04,24,0.00
2014,12,08,04,25,0.00
2014,12,08,04,26,0.00
2014,12,08,04,27,0.10
2014,12,08,04,28,0.00
2014,12,08,04,29,0.00
2014,12,08,04,30,0.00
2014,12,08,04,31,0.00
2014,12,08,04,32,0.00
2014,12,08,04,33,0.00
2014,12,08,04,34,0.00
2014,12,08,04,35,0.00
2014,12,08,04,36,0.00
2014,12,08,04,37,0.00
2014,12,08,04,38,0.00
2014,12,08,04,39,0.00
2014,12,08,04,40,0.00
2014,12,08,04,41,0.00
2014,12,08,04,42,0.00
2014,12,08,04,43,0.00
2014,12,08,04,44,0.50
2014,12,08,04,45,2.40
2014,12,08,04,46,0.00
2014,12,08,04,47,0.00
2014,12,08,04,48,0.00
2014,12,08,04,49,0.00
2014,12,08,04,50,0.00
2014,12,08,04,51,0.00
2014,12,08,04,52,0.80
2014,12,08,04,53,1.90
2014,12,08,04,54,0.00
2014,12,08,04,55,0.00
2014,12,08,04,56,0.00
2014,12,08,04,57,0.30
2014,12,08,04,58,3.00
2014,12,08,04,59,2.40
2014,12,08,05,00,2.90
2014,12,08,05,01,3.10
2014,12,08,05,02,0.10
2014,12,08,05,03,2.00
2014,12,08,05,04,0.10
2014,12,08,05,05,0.00
2014,12,08,05,06,0.00
2014,12,08,05,07,1.90
2014,12,08,05,08,1.70
2014,12,08,05,09,0.00
2014,12,08,05,10,0.00
2014,12,08,05,11,0.00
2014,12,08,05,12,0.00
2014,12,08,05,13,0.00
2014,12,08,05,14,3.00
2014,12,08,05,15,0.50
2014,12,08,05,16,1.00
2014,12,08,05,17,0.00
2014,12,08,05,18,0.00
2014,12,08,05,19,0.10
2014,12,08,05,20,1.20
2014,12,08,05,21,0.00
2014,12,08,05,22,0.10
2014,12,08,05,23,0.00
2014,12,08,05,24,0.00
2014,12,08,05,25,0.00
2014,12,08,05,26,0.00
2014,12,08,05,27,0.30
2014,12,08,05,28,3.50
2014,12,08,05,29,3.00
2014,12,08,05,30,3.20
2014,12,08,05,31,1.90
2014,12,08,05,32,1.60
2014,12,08,05,33,0.00
2014,12,08,05,34,0.10
2014,12,08,05,35,0.00
2014,12,08,05,36,0.00
2014,12,08,05,37,0.00
2014,12,08,05,38,0.00
2014,12,08,05,39,1.10
2014,12,08,05,40,5.90
2014,12,08,05,41,5.40
2014,12,08,05,42,4.40
2014,12,08,05,43,4.80
2014,12,08,05,44,5.70
2014,12,08,05,45,6.40
2014,12,08,05,46,5.70
2014,12,08,05,47,6.00
2014,12,08,05,48,7.50
2014,12,08,05,49,6.10
2014,12,08,05,50,2.90
2014,12,08,05,51,3.80
2014,12,08,05,52,3.60
2014,12,08,05,53,1.70
2014,12,08,05,54,2.20
2014,12,08,05,55,4.40
2014,12,08,05,56,3.80
2014,12,08,05,57,5.70
2014,12,08,05,58,2.60
2014,12,08,05,59,5.50
2014,12,08,06,00,5.30
2014,12,08,06,01,1.40
2014,12,08,06,02,0.50
2014,12,08,06,03,0.00
2014,12,08,06,04,0.00
2014,12,08,06,05,0.00
2014,12,08,06,06,0.00
2014,12,08,06,07,0.00
2014,12,08,06,08,0.60
2014,12,08,06,09,0.10
2014,12,08,06,10,1.60
2014,12,08,06,11,0.40
2014,12,08,06,12,0.00
2014,12,08,06,13,0.00
2014,12,08,06,14,0.00
2014,12,08,06,15,0.00
2014,12,08,06,16,0.00
2014,12,08,06,17,0.00
2014,12,08,06,18,0.00
2014,12,08,06,19,0.00
2014,12,08,06,20,0.40
2014,12,08,06,21,0.00
2014,12,08,06,22,0.00
2014,12,08,06,23,0.00
2014,12,08,06,24,0.00
2014,12,08,06,25,0.50
2014,12,08,06,26,5.10
2014,12,08,06,27,6.40
2014,12,08,06,28,5.70
2014,12,08,06,29,5.40
2014,12,08,06,30,6.40
2014,12,08,06,31,5.60
2014,12,08,06,32,5.90
2014,12,08,06,33,2.30
2014,12,08,06,34,0.00
2014,12,08,06,35,0.10
2014,12,08,06,36,0.00
2014,12,08,06,37,0.00
2014,12,08,06,38,0.70
2014,12,08,06,39,1.10
2014,12,08,06,40,2.50
2014,12,08,06,41,3.90
2014,12,08,06,42,6.60
2014,12,08,06,43,3.50
2014,12,08,06,44,4.20
2014,12,08,06,45,8.00
2014,12,08,06,46,0.60
2014,12,08,06,47,7.90
2014,12,08,06,48,10.00
2014,12,08,06,49,10.40
2014,12,08,06,50,8.90
2014,12,08,06,51,6.40
2014,12,08,06,52,5.90
2014,12,08,06,53,5.40
2014,12,08,06,54,4.90
2014,12,08,06,55,5.10
2014,12,08,06,56,5.40
2014,12,08,06,57,5.50
2014,12,08,06,58,7.00
2014,12,08,06,59,3.70
2014,12,08,07,00,0.80
2014,12,08,07,01,4.80
2014,12,08,07,02,4.90
2014,12,08,07,03,3.40
2014,12,08,07,04,4.00
2014,12,08,07,05,5.00
2014,12,08,07,06,6.40
2014,12,08,07,07,6.40
2014,12,08,07,08,6.40
2014,12,08,07,09,6.40
2014,12,08,07,10,6.40
2014,12,08,07,11,6.40
2014,12,08,07,12,6.40
2014,12,08,07,13,6.40
2014,12,08,07,14,5.80
2014,12,08,07,15,5.70
2014,12,08,07,16,10.10
2014,12,08,07,17,7.40
2014,12,08,07,18,8.60
2014,12,08,07,19,9.20
2014,12,08,07,20,5.70
2014,12,08,07,21,4.10
2014,12,08,07,22,4.00
2014,12,08,07,23,4.00
2014,12,08,07,24,6.10
2014,12,08,07,25,4.10
2014,12,08,07,26,4.10
2014,12,08,07,27,5.70
2014,12,08,07,28,7.90
2014,12,08,07,29,8.10
2014,12,08,07,30,7.40
2014,12,08,07,31,7.20
2014,12,08,07,32,5.80
2014,12,08,07,33,6.80
2014,12,08,07,34,9.30
2014,12,08,07,35,10.10
2014,12,08,07,36,9.20
2014,12,08,07,37,8.10
2014,12,08,07,38,8.00
2014,12,08,07,39,6.60
2014,12,08,07,40,6.80
2014,12,08,07,41,6.10
2014,12,08,07,42,6.00
2014,12,08,07,43,5.00
2014,12,08,07,44,5.50
2014,12,08,07,45,5.80
2014,12,08,07,46,5.20
2014,12,08,07,47,4.50
2014,12,08,07,48,5.90
2014,12,08,07,49,5.40
2014,12,08,07,50,5.90
2014,12,08,07,51,6.10
2014,12,08,07,52,5.90
2014,12,08,07,53,8.30
2014,12,08,07,54,7.40
2014,12,08,07,55,6.00
2014,12,08,07,56,5.40
2014,12,08,07,57,5.50
2014,12,08,07,58,8.40
2014,12,08,07,59,6.40
2014,12,08,08,00,3.70
2014,12,08,08,01,6.80
2014,12,08,08,02,6.00
2014,12,08,08,03,7.10
2014,12,08,08,04,8.70
2014,12,08,08,05,8.00
2014,12,08,08,06,7.60
2014,12,08,08,07,5.60
2014,12,08,08,08,5.90
2014,12,08,08,09,9.00
2014,12,08,08,10,10.90
2014,12,08,08,11,8.70
2014,12,08,08,12,7.10
2014,12,08,08,13,9.10
2014,12,08,08,14,6.60
2014,12,08,08,15,3.50
2014,12,08,08,16,7.30
2014,12,08,08,17,5.00
2014,12,08,08,18,4.90
2014,12,08,08,19,7.10
2014,12,08,08,20,6.80
2014,12,08,08,21,7.90
2014,12,08,08,22,5.40
2014,12,08,08,23,5.20
2014,12,08,08,24,3.40
2014,12,08,08,25,6.10
2014,12,08,08,26,6.80
2014,12,08,08,27,6.20
2014,12,08,08,28,5.30
2014,12,08,08,29,5.70
2014,12,08,08,30,2.10
2014,12,08,08,31,6.30
2014,12,08,08,32,5.80
2014,12,08,08,33,6.10
2014,12,08,08,34,5.20
2014,12,08,08,35,7.20
2014,12,08,08,36,10.70
2014,12,08,08,37,6.80
2014,12,08,08,38,7.90
2014,12,08,08,39,7.10
2014,12,08,08,40,7.40
2014,12,08,08,41,4.10
2014,12,08,08,42,5.00
2014,12,08,08,43,6.80
2014,12,08,08,44,14.00
2014,12,08,08,45,10.50
2014,12,08,08,46,7.60
2014,12,08,08,47,4.80
2014,12,08,08,48,2.60
2014,12,08,08,49,0.00
2014,12,08,08,50,0.00
2014,12,08,08,51,0.00
2014,12,08,08,52,0.00
2014,12,08,08,53,0.00
2014,12,08,08,54,2.70
2014,12,08,08,55,3.70
2014,12,08,08,56,1.80
2014,12,08,08,57,0.00
2014,12,08,08,58,0.00
2014,12,08,08,59,0.00
2014,12,08,09,00,1.90
2014,12,08,09,01,5.70
2014,12,08,09,02,5.50
2014,12,08,09,03,4.10
2014,12,08,09,04,3.70
2014,12,08,09,05,5.00
2014,12,08,09,06,6.20
2014,12,08,09,07,7.60
2014,12,08,09,08,8.60
2014,12,08,09,09,9.40
2014,12,08,09,10,6.90
2014,12,08,09,11,6.20
2014,12,08,09,12,7.90
2014,12,08,09,13,7.50
2014,12,08,09,14,9.90
2014,12,08,09,15,7.10
2014,12,08,09,16,6.10
2014,12,08,09,17,8.00
2014,12,08,09,18,6.20
2014,12,08,09,19,10.30
2014,12,08,09,20,9.10
2014,12,08,09,21,9.40
2014,12,08,09,22,8.70
2014,12,08,09,23,9.40
2014,12,08,09,24,7.00
2014,12,08,09,25,6.40
2014,12,08,09,26,4.20
2014,12,08,09,27,5.10
2014,12,08,09,28,6.80
2014,12,08,09,29,8.60
2014,12,08,09,30,8.60
2014,12,08,09,31,8.10
2014,12,08,09,32,8.50
2014,12,08,09,33,6.40
2014,12,08,09,34,5.30
2014,12,08,09,35,5.10
2014,12,08,09,36,3.60
2014,12,08,09,37,4.10
2014,12,08,09,38,5.60
2014,12,08,09,39,5.00
2014,12,08,09,40,4.90
2014,12,08,09,41,2.80
2014,12,08,09,42,0.00
2014,12,08,09,43,0.00
2014,12,08,09,44,1.90
2014,12,08,09,45,0.80
2014,12,08,09,46,0.00
2014,12,08,09,47,0.00
2014,12,08,09,48,0.00
2014,12,08,09,49,0.10
2014,12,08,09,50,0.10
2014,12,08,09,51,0.00
2014,12,08,09,52,3.40
2014,12,08,09,53,3.40
2014,12,08,09,54,4.90
2014,12,08,09,55,4.80
2014,12,08,09,56,5.20
2014,12,08,09,57,5.50
2014,12,08,09,58,4.40
2014,12,08,09,59,1.70
2014,12,08,10,00,3.40
2014,12,08,10,01,7.10
2014,12,08,10,02,4.20
2014,12,08,10,03,1.20
2014,12,08,10,04,4.40
2014,12,08,10,05,4.50
2014,12,08,10,06,6.00
2014,12,08,10,07,4.00
2014,12,08,10,08,6.90
2014,12,08,10,09,3.90
2014,12,08,10,10,4.10
2014,12,08,10,11,2.20
2014,12,08,10,12,2.90
2014,12,08,10,13,1.20
2014,12,08,10,14,2.60
2014,12,08,10,15,2.20
2014,12,08,10,16,4.70
2014,12,08,10,17,4.50
2014,12,08,10,18,0.20
2014,12,08,10,19,3.50
2014,12,08,10,20,7.60
2014,12,08,10,21,9.30
2014,12,08,10,22,6.90
2014,12,08,10,23,1.60
2014,12,08,10,24,5.60
2014,12,08,10,25,7.30
2014,12,08,10,26,6.50
2014,12,08,10,27,3.80
2014,12,08,10,28,5.00
2014,12,08,10,29,5.30
2014,12,08,10,30,6.00
2014,12,08,10,31,3.50
2014,12,08,10,32,4.80
2014,12,08,10,33,4.60
2014,12,08,10,34,6.90
2014,12,08,10,35,8.60
2014,12,08,10,36,10.30
2014,12,08,10,37,8.60
2014,12,08,10,38,3.00
2014,12,08,10,39,5.40
2014,12,08,10,40,6.40
2014,12,08,10,41,3.90
2014,12,08,10,42,5.00
2014,12,08,10,43,7.70
2014,12,08,10,44,8.30
2014,12,08,10,45,8.50
2014,12,08,10,46,7.10
2014,12,08,10,47,9.50
2014,12,08,10,48,6.30
2014,12,08,10,49,6.10
2014,12,08,10,50,4.00
2014,12,08,10,51,7.80
2014,12,08,10,52,6.30
2014,12,08,10,53,4.20
2014,12,08,10,54,2.20
2014,12,08,10,55,0.70
2014,12,08,10,56,1.90
2014,12,08,10,57,1.60
2014,12,08,10,58,5.80
2014,12,08,10,59,7.50
2014,12,08,11,00,6.70
2014,12,08,11,01,6.20
2014,12,08,11,02,7.40
2014,12,08,11,03,6.10
2014,12,08,11,04,7.40
2014,12,08,11,05,6.40
2014,12,08,11,06,4.60
2014,12,08,11,07,5.30
2014,12,08,11,08,3.90
2014,12,08,11,09,5.10
2014,12,08,11,10,7.50
2014,12,08,11,11,6.10
2014,12,08,11,12,5.70
2014,12,08,11,13,4.40
2014,12,08,11,14,3.80
2014,12,08,11,15,1.00
2014,12,08,11,16,0.20
2014,12,08,11,17,4.10
2014,12,08,11,18,0.50
2014,12,08,11,19,0.80
2014,12,08,11,20,0.00
2014,12,08,11,21,2.90
2014,12,08,11,22,5.40
2014,12,08,11,23,2.50
2014,12,08,11,24,2.40
2014,12,08,11,25,3.20
2014,12,08,11,26,3.20
2014,12,08,11,27,2.90
2014,12,08,11,28,2.40
2014,12,08,11,29,2.20
2014,12,08,11,30,2.40
2014,12,08,11,31,1.30
2014,12,08,11,32,0.10
2014,12,08,11,33,2.50
2014,12,08,11,34,2.90
2014,12,08,11,35,4.00
2014,12,08,11,36,5.10
2014,12,08,11,37,5.70
2014,12,08,11,38,4.80
2014,12,08,11,39,3.90
2014,12,08,11,40,2.70
2014,12,08,11,41,0.40
2014,12,08,11,42,3.70
2014,12,08,11,43,5.10
2014,12,08,11,44,4.10
2014,12,08,11,45,5.40
2014,12,08,11,46,4.30
2014,12,08,11,47,1.40
2014,12,08,11,48,0.00
2014,12,08,11,49,3.40
2014,12,08,11,50,0.40
2014,12,08,11,51,0.00
2014,12,08,11,52,0.00
2014,12,08,11,53,0.10
2014,12,08,11,54,0.00
2014,12,08,11,55,0.00
2014,12,08,11,56,1.50
2014,12,08,11,57,0.00
2014,12,08,11,58,0.00
2014,12,08,11,59,0.00
2014,12,08,12,00,0.00
2014,12,08,12,01,0.10
2014,12,08,12,02,0.00
2014,12,08,12,03,0.00
2014,12,08,12,04,0.00
2014,12,08,12,05,0.00
2014,12,08,12,06,0.00
2014,12,08,12,07,0.00
2014,12,08,12,08,2.50
2014,12,08,12,09,4.30
2014,12,08,12,10,1.80
2014,12,08,12,11,0.00
2014,12,08,12,12,0.00
2014,12,08,12,13,0.00
2014,12,08,12,14,0.80
2014,12,08,12,15,3.30
2014,12,08,12,16,2.50
2014,12,08,12,17,0.00
2014,12,08,12,18,3.10
2014,12,08,12,19,3.10
2014,12,08,12,20,1.60
2014,12,08,12,21,1.40
2014,12,08,12,22,1.50
2014,12,08,12,23,0.60
2014,12,08,12,24,3.10
2014,12,08,12,25,1.80
2014,12,08,12,26,0.10
2014,12,08,12,27,0.00
2014,12,08,12,28,2.10
2014,12,08,12,29,1.80
2014,12,08,12,30,0.20
2014,12,08,12,31,1.50
2014,12,08,12,32,5.30
2014,12,08,12,33,6.10
2014,12,08,12,34,6.40
2014,12,08,12,35,5.20
2014,12,08,12,36,2.80
2014,12,08,12,37,6.00
2014,12,08,12,38,8.00
2014,12,08,12,39,1.30
2014,12,08,12,40,0.10
2014,12,08,12,41,3.10
2014,12,08,12,42,2.70
2014,12,08,12,43,5.80
2014,12,08,12,44,7.80
2014,12,08,12,45,6.10
2014,12,08,12,46,1.40
2014,12,08,12,47,2.00
2014,12,08,12,48,3.00
2014,12,08,12,49,3.20
2014,12,08,12,50,3.20
2014,12,08,12,51,3.20
2014,12,08,12,52,3.20
2014,12,08,12,53,3.20
2014,12,08,12,54,4.40
2014,12,08,12,55,7.90
2014,12,08,12,56,8.90
2014,12,08,12,57,9.70
2014,12,08,12,58,4.20
2014,12,08,12,59,4.00
2014,12,08,13,00,6.20
2014,12,08,13,01,5.00
2014,12,08,13,02,6.80
2014,12,08,13,03,8.10
2014,12,08,13,04,5.70
2014,12,08,13,05,8.90
2014,12,08,13,06,9.00
2014,12,08,13,07,7.00
2014,12,08,13,08,2.60
2014,12,08,13,09,0.00
2014,12,08,13,10,0.00
2014,12,08,13,11,0.00
2014,12,08,13,12,0.00
2014,12,08,13,13,3.00
2014,12,08,13,14,9.30
2014,12,08,13,15,6.10
2014,12,08,13,16,3.30
2014,12,08,13,17,1.80
2014,12,08,13,18,0.00
2014,12,08,13,19,2.40
2014,12,08,13,20,7.40
2014,12,08,13,21,5.10
2014,12,08,13,22,1.60
2014,12,08,13,23,0.00
2014,12,08,13,24,0.00
2014,12,08,13,25,0.80
2014,12,08,13,26,1.30
2014,12,08,13,27,0.00
2014,12,08,13,28,0.00
2014,12,08,13,29,0.00
2014,12,08,13,30,0.00
2014,12,08,13,31,0.00
2014,12,08,13,32,0.10
2014,12,08,13,33,1.80
2014,12,08,13,34,2.00
2014,12,08,13,35,0.30
2014,12,08,13,36,4.10
2014,12,08,13,37,4.10
2014,12,08,13,38,2.30
2014,12,08,13,39,0.40
2014,12,08,13,40,0.10
2014,12,08,13,41,1.30
2014,12,08,13,42,0.50
2014,12,08,13,43,0.00
2014,12,08,13,44,2.80
2014,12,08,13,45,5.20
2014,12,08,13,46,3.40
2014,12,08,13,47,4.80
2014,12,08,13,48,6.00
2014,12,08,13,49,4.00
2014,12,08,13,50,4.40
2014,12,08,13,51,6.70
2014,12,08,13,52,6.30
2014,12,08,13,53,7.00
2014,12,08,13,54,6.70
2014,12,08,13,55,4.60
2014,12,08,13,56,2.70
2014,12,08,13,57,1.60
2014,12,08,13,58,1.60
2014,12,08,13,59,1.40
2014,12,08,14,00,2.70
2014,12,08,14,01,3.60
2014,12,08,14,02,2.60
2014,12,08,14,03,2.60
2014,12,08,14,04,5.10
2014,12,08,14,05,4.80
2014,12,08,14,06,7.50
2014,12,08,14,07,5.80
2014,12,08,14,08,2.60
2014,12,08,14,09,0.50
2014,12,08,14,10,0.50
2014,12,08,14,11,6.10
2014,12,08,14,12,6.90
2014,12,08,14,13,6.60
2014,12,08,14,14,6.90
2014,12,08,14,15,6.20
2014,12,08,14,16,3.00
2014,12,08,14,17,9.30
2014,12,08,14,18,7.90
2014,12,08,14,19,9.90
2014,12,08,14,20,7.40
2014,12,08,14,21,3.40
2014,12,08,14,22,1.50
2014,12,08,14,23,0.00
2014,12,08,14,24,0.10
2014,12,08,14,25,2.60
2014,12,08,14,26,0.60
2014,12,08,14,27,1.70
2014,12,08,14,28,5.10
2014,12,08,14,29,7.80
2014,12,08,14,30,5.10
2014,12,08,14,31,2.80
2014,12,08,14,32,3.10
2014,12,08,14,33,7.70
2014,12,08,14,34,6.80
2014,12,08,14,35,6.70
2014,12,08,14,36,7.40
2014,12,08,14,37,5.10
2014,12,08,14,38,7.60
2014,12,08,14,39,3.60
2014,12,08,14,40,8.40
2014,12,08,14,41,4.00
2014,12,08,14,42,1.50
2014,12,08,14,43,0.90
2014,12,08,14,44,1.50
2014,12,08,14,45,2.90
2014,12,08,14,46,6.30
2014,12,08,14,47,5.80
2014,12,08,14,48,2.30
2014,12,08,14,49,2.80
2014,12,08,14,50,1.70
2014,12,08,14,51,2.90
2014,12,08,14,52,2.60
2014,12,08,14,53,2.10
2014,12,08,14,54,1.80
2014,12,08,14,55,0.00
2014,12,08,14,56,0.30
2014,12,08,14,57,0.00
2014,12,08,14,58,4.70
2014,12,08,14,59,6.70
2014,12,08,15,00,5.10
2014,12,08,15,01,3.70
2014,12,08,15,02,6.70
2014,12,08,15,03,3.10
2014,12,08,15,04,2.40
2014,12,08,15,05,1.70
2014,12,08,15,06,3.80
2014,12,08,15,07,6.40
2014,12,08,15,08,5.30
2014,12,08,15,09,3.40
2014,12,08,15,10,3.70
2014,12,08,15,11,5.70
2014,12,08,15,12,10.30
2014,12,08,15,13,10.00
2014,12,08,15,14,8.30
2014,12,08,15,15,6.40
2014,12,08,15,16,10.30
2014,12,08,15,17,6.30
2014,12,08,15,18,7.40
2014,12,08,15,19,9.20
2014,12,08,15,20,5.30
2014,12,08,15,21,2.50
2014,12,08,15,22,2.70
2014,12,08,15,23,1.90
2014,12,08,15,24,1.00
2014,12,08,15,25,3.70
2014,12,08,15,26,0.40
2014,12,08,15,27,2.00
2014,12,08,15,28,7.20
2014,12,08,15,29,1.70
2014,12,08,15,30,0.10
2014,12,08,15,31,0.40
2014,12,08,15,32,2.60
2014,12,08,15,33,1.60
2014,12,08,15,34,2.90
2014,12,08,15,35,6.10
2014,12,08,15,36,4.20
2014,12,08,15,37,5.40
2014,12,08,15,38,8.60
2014,12,08,15,39,8.80
2014,12,08,15,40,10.00
2014,12,08,15,41,8.70
2014,12,08,15,42,7.20
2014,12,08,15,43,7.10
2014,12,08,15,44,7.40
2014,12,08,15,45,5.90
2014,12,08,15,46,3.60
2014,12,08,15,47,4.90
2014,12,08,15,48,6.60
2014,12,08,15,49,5.70
2014,12,08,15,50,2.90
2014,12,08,15,51,4.20
2014,12,08,15,52,4.70
2014,12,08,15,53,3.90
2014,12,08,15,54,2.30
2014,12,08,15,55,4.40
2014,12,08,15,56,7.10
2014,12,08,15,57,8.80
2014,12,08,15,58,8.20
2014,12,08,15,59,5.70
2014,12,08,16,00,8.20
2014,12,08,16,01,10.30
2014,12,08,16,02,7.90
2014,12,08,16,03,8.00
2014,12,08,16,04,4.40
2014,12,08,16,05,4.20
2014,12,08,16,06,3.40
2014,12,08,16,07,3.80
2014,12,08,16,08,5.20
2014,12,08,16,09,5.70
2014,12,08,16,10,6.40
2014,12,08,16,11,9.00
2014,12,08,16,12,9.70
2014,12,08,16,13,7.70
2014,12,08,16,14,1.40
2014,12,08,16,15,1.70
2014,12,08,16,16,3.70
2014,12,08,16,17,4.40
2014,12,08,16,18,3.40
2014,12,08,16,19,3.70
2014,12,08,16,20,4.30
2014,12,08,16,21,8.10
2014,12,08,16,22,6.60
2014,12,08,16,23,10.00
2014,12,08,16,24,10.10
2014,12,08,16,25,7.90
2014,12,08,16,26,6.80
2014,12,08,16,27,7.10
2014,12,08,16,28,7.70
2014,12,08,16,29,5.10
2014,12,08,16,30,2.40
2014,12,08,16,31,3.70
2014,12,08,16,32,9.20
2014,12,08,16,33,9.00
2014,12,08,16,34,9.50
2014,12,08,16,35,7.40
2014,12,08,16,36,6.20
2014,12,08,16,37,2.80
2014,12,08,16,38,4.40
2014,12,08,16,39,4.30
2014,12,08,16,40,4.10
2014,12,08,16,41,4.80
2014,12,08,16,42,4.10
2014,12,08,16,43,3.30
2014,12,08,16,44,3.10
2014,12,08,16,45,3.80
2014,12,08,16,46,4.40
2014,12,08,16,47,5.10
2014,12,08,16,48,5.30
2014,12,08,16,49,5.30
2014,12,08,16,50,5.30
2014,12,08,16,51,8.30
2014,12,08,16,52,9.30
2014,12,08,16,53,8.30
2014,12,08,16,54,9.40
2014,12,08,16,55,7.90
2014,12,08,16,56,7.50
2014,12,08,16,57,7.10
2014,12,08,16,58,7.50
2014,12,08,16,59,3.90
2014,12,08,17,00,1.80
2014,12,08,17,01,2.10
2014,12,08,17,02,1.60
2014,12,08,17,03,2.10
2014,12,08,17,04,0.00
2014,12,08,17,05,0.00
2014,12,08,17,06,0.10
2014,12,08,17,07,0.00
2014,12,08,17,08,0.00
2014,12,08,17,09,0.20
2014,12,08,17,10,0.00
2014,12,08,17,11,0.10
2014,12,08,17,12,2.70
2014,12,08,17,13,0.70
2014,12,08,17,14,2.90
2014,12,08,17,15,0.00
2014,12,08,17,16,0.00
2014,12,08,17,17,0.00
2014,12,08,17,18,0.20
2014,12,08,17,19,0.00
2014,12,08,17,20,0.00
2014,12,08,17,21,0.90
2014,12,08,17,22,0.50
2014,12,08,17,23,2.30
2014,12,08,17,24,3.50
2014,12,08,17,25,1.20
2014,12,08,17,26,0.00
2014,12,08,17,27,0.00
2014,12,08,17,28,2.40
2014,12,08,17,29,5.80
2014,12,08,17,30,8.00
2014,12,08,17,31,5.10
2014,12,08,17,32,3.00
2014,12,08,17,33,0.70
2014,12,08,17,34,0.00
2014,12,08,17,35,0.00
2014,12,08,17,36,0.00
2014,12,08,17,37,0.00
2014,12,08,17,38,1.20
2014,12,08,17,39,4.80
2014,12,08,17,40,2.50
2014,12,08,17,41,0.10
2014,12,08,17,42,3.10
2014,12,08,17,43,1.40
2014,12,08,17,44,3.30
2014,12,08,17,45,0.00
2014,12,08,17,46,1.70
2014,12,08,17,47,0.00
2014,12,08,17,48,0.00
2014,12,08,17,49,0.10
2014,12,08,17,50,0.10
2014,12,08,17,51,4.90
2014,12,08,17,52,4.70
2014,12,08,17,53,5.30
2014,12,08,17,54,6.90
2014,12,08,17,55,8.70
2014,12,08,17,56,8.70
2014,12,08,17,57,6.20
2014,12,08,17,58,7.90
2014,12,08,17,59,6.70
2014,12,08,18,00,5.80
2014,12,08,18,01,2.90
2014,12,08,18,02,5.10
2014,12,08,18,03,1.80
2014,12,08,18,04,0.80
2014,12,08,18,05,0.00